User: anonymous   Login
Location: Unspecified
(0.0000°N, 0.0000°E)
Time: 18:21:57
(UTC+00:00)
Language:

STARLINK-32832 - Orbit

View from above orbital plane
View from above orbital plane
View from above satellite
View from above satellite

Ground track
Ground track

The orbit is defined by the following mean orbital elements,

1 63040U          26145.05819602 +.00000000 +00000-0 +43589-3 0 00007
2 63040  53.1583 263.0867 0000892  67.6255 292.4841 15.31716861    01
Epoch (UTC): 25 May 2026 01:23:48
Eccentricity: 0.0000892
inclination: 53.1583°
perigee height: 470 km
apogee height: 471 km
right ascension of ascending node: 263.0867°
argument of perigee: 67.6255°
revolutions per day: 15.31716861
mean anomaly at epoch: 292.4841°

The dashed part of the orbit path shows where the satellite is in the earth's shadow,  

DLR